Fredericksburg, VA

10:51 AM EST on December 08, 2019 (GMT -0500)
Shannon

Weather History for KEZF - October, 2019

Change the Weather History Date:

Monday, October 7, 2019

  Actual Average (KNYG) Record (KNYG)
Temperature  
Mean Temperature 72 °F -  
Max Temperature 83 °F 68 °F 91 °F (2007)
Min Temperature 62 °F 49 °F 39 °F (2001)
Cooling Degree Days 8    
Growing Degree Days 22 (Base 50)    
Moisture  
Dew Point 63 °F    
Average Humidity 76    
Maximum Humidity 96    
Minimum Humidity 51    
Precipitation  
Precipitation 0.00 in - - ()
Sea Level Pressure  
Sea Level Pressure 30.13 in    
Wind  
Wind Speed 6 mph ()    
Max Wind Speed 15 mph    
Max Gust Speed 23 mph    
Visibility 10.0 miles    
Events      
Averages and records for this station are not official NWS values.
T = Trace of Precipitation, MM = Missing Value Source: Averaged Metar Reports

Daily Weather History Graph

Daily Weather History Graph

Search for Another Location

Airport or City:

Astronomy

Oct. 07, 2019 Rise Set
Actual Time 7:10 AM EDT 6:43 PM EDT
Civil Twilight 6:44 AM EDT 7:10 PM EDT
Nautical Twilight 6:13 AM EDT 7:40 PM EDT
Astronomical Twilight 5:43 AM EDT 8:11 PM EDT
Moon 3:58 PM EDT (10/7) 1:07 AM EDT (10/7)
Length of Visible Light 12h 25m
Length of Day
11h 33m
Waxing Gibbous, 69% of the Moon is Illuminated
Oct 7
Waxing Gibbous
Oct 13
Full
Oct 21
Last Quarter
Oct 27
New
Nov 4
First Quarter

Hourly Weather History & Observations

Time (EDT) Temp. Heat Index Dew Point Humidity Pressure Visibility Wind Dir Wind Speed Gust Speed Precip Events Conditions
12:15 AM 66.9 °F - 64.8 °F 93% 30.20 in 10.0 mi South 3.5 mph - N/A   Mostly Cloudy
12:35 AM 66.4 °F - 64.4 °F 93% 30.20 in 10.0 mi SSE 5.8 mph - N/A   Scattered Clouds
12:55 AM 66.6 °F - 63.9 °F 91% 30.20 in 10.0 mi SSE 5.8 mph - N/A   Clear
1:15 AM 67.1 °F - 63.7 °F 89% 30.20 in 10.0 mi South 6.9 mph - N/A   Mostly Cloudy
1:35 AM 67.3 °F - 63.5 °F 88% 30.19 in 10.0 mi SSE 6.9 mph - N/A   Overcast
1:55 AM 67.1 °F - 63.1 °F 87% 30.19 in 10.0 mi South 5.8 mph - N/A   Overcast
2:15 AM 67.5 °F - 63.0 °F 85% 30.19 in 10.0 mi South 5.8 mph - N/A   Overcast
2:35 AM 67.5 °F - 62.8 °F 85% 30.19 in 10.0 mi South 5.8 mph - N/A   Overcast
2:55 AM 67.8 °F - 62.6 °F 83% 30.18 in 10.0 mi South 6.9 mph - N/A   Overcast
3:15 AM 68.0 °F - 62.6 °F 83% 30.17 in 10.0 mi South 8.1 mph - N/A   Overcast
3:35 AM 67.1 °F - 62.8 °F 86% 30.17 in 10.0 mi SSE 5.8 mph - N/A   Overcast
4:15 AM 66.2 °F - 62.6 °F 88% 30.17 in 10.0 mi South 5.8 mph - N/A   Overcast
4:35 AM 66.0 °F - 62.4 °F 88% 30.17 in 10.0 mi South 5.8 mph - N/A   Mostly Cloudy
4:55 AM 65.7 °F - 62.2 °F 89% 30.17 in 10.0 mi South 5.8 mph - N/A   Scattered Clouds
5:15 AM 65.3 °F - 62.6 °F 91% 30.17 in 10.0 mi South 5.8 mph - N/A   Mostly Cloudy
5:35 AM 65.3 °F - 62.4 °F 90% 30.17 in 10.0 mi SW 3.5 mph - N/A   Overcast
5:55 AM 65.3 °F - 62.6 °F 91% 30.17 in 10.0 mi South 3.5 mph - N/A   Overcast
6:15 AM 64.8 °F - 62.2 °F 92% 30.17 in 10.0 mi South 4.6 mph - N/A   Mostly Cloudy
6:35 AM 63.9 °F - 61.9 °F 93% 30.17 in 10.0 mi SSW 3.5 mph - N/A   Clear
6:55 AM 63.5 °F - 61.7 °F 94% 30.17 in 10.0 mi Calm Calm - N/A   Clear
7:15 AM 62.8 °F - 61.5 °F 96% 30.17 in 10.0 mi Calm Calm - N/A   Scattered Clouds
7:55 AM 64.0 °F - 62.6 °F 95% 30.18 in 10.0 mi Calm Calm - N/A   Mostly Cloudy
8:15 AM 65.1 °F - 63.0 °F 93% 30.18 in 10.0 mi Calm Calm - N/A   Scattered Clouds
8:35 AM 66.7 °F - 63.0 °F 88% 30.18 in 10.0 mi SSW 5.8 mph - N/A   Clear
8:55 AM 68.0 °F - 63.5 °F 85% 30.18 in 10.0 mi SSW 5.8 mph - N/A   Clear
10:15 AM 73.6 °F - 65.3 °F 75% 30.17 in 10.0 mi SSW 9.2 mph - N/A   Clear
10:35 AM 74.7 °F - 65.3 °F 73% 30.16 in 10.0 mi South 10.4 mph - N/A   Clear
10:55 AM 74.8 °F - 65.5 °F 73% 30.16 in 10.0 mi SSW 8.1 mph - N/A   Clear
11:15 AM 75.4 °F - 65.3 °F 71% 30.16 in 10.0 mi South 8.1 mph - N/A   Scattered Clouds
11:35 AM 77.4 °F - 64.9 °F 65% 30.14 in 10.0 mi South 9.2 mph 17.3 mph N/A   Scattered Clouds
11:55 AM 77.5 °F - 65.3 °F 66% 30.14 in 10.0 mi South 11.5 mph 16.1 mph N/A   Mostly Cloudy
12:15 PM 78.1 °F - 65.3 °F 65% 30.13 in 10.0 mi SSW 13.8 mph 17.3 mph N/A   Scattered Clouds
12:35 PM 77.9 °F - 65.3 °F 65% 30.12 in 10.0 mi WSW 5.8 mph - N/A   Scattered Clouds
1:15 PM 79.2 °F - 64.4 °F 60% 30.11 in 10.0 mi SSW 8.1 mph - N/A   Scattered Clouds
1:35 PM 79.3 °F - 64.4 °F 60% 30.09 in 10.0 mi SSW 9.2 mph 16.1 mph N/A   Scattered Clouds
1:55 PM 81.0 °F 82.5 °F 63.9 °F 56% 30.09 in 10.0 mi SSW 10.4 mph 17.3 mph N/A   Mostly Cloudy
2:15 PM 80.6 °F 82.0 °F 63.7 °F 56% 30.07 in 10.0 mi SW 11.5 mph 17.3 mph N/A   Scattered Clouds
2:35 PM 80.6 °F 82.0 °F 63.7 °F 56% 30.06 in 10.0 mi SSW 11.5 mph - N/A   Scattered Clouds
2:55 PM 80.8 °F 82.4 °F 64.2 °F 57% 30.06 in 10.0 mi SSW 6.9 mph - N/A   Mostly Cloudy
3:15 PM 81.9 °F 83.2 °F 63.7 °F 54% 30.06 in 10.0 mi South 9.2 mph - N/A   Scattered Clouds
3:35 PM 82.4 °F 83.7 °F 63.5 °F 53% 30.05 in 10.0 mi SSW 8.1 mph - N/A   Clear
3:55 PM 81.9 °F 83.2 °F 63.7 °F 54% 30.04 in 10.0 mi SW 5.8 mph - N/A   Scattered Clouds
4:15 PM 82.6 °F 83.8 °F 63.5 °F 52% 30.04 in 10.0 mi SSW 9.2 mph - N/A   Scattered Clouds
4:35 PM 83.3 °F 84.4 °F 63.7 °F 51% 30.03 in 10.0 mi SW 5.8 mph - N/A   Scattered Clouds
4:55 PM 82.9 °F 84.0 °F 63.0 °F 51% 30.02 in 10.0 mi South 8.1 mph - N/A   Scattered Clouds
5:15 PM 82.8 °F 84.0 °F 63.3 °F 52% 30.02 in 10.0 mi South 6.9 mph - N/A   Clear
5:55 PM 81.1 °F 82.5 °F 63.7 °F 55% 30.01 in 10.0 mi SSE 5.8 mph - N/A   Mostly Cloudy
6:15 PM 80.2 °F 81.9 °F 64.4 °F 58% 30.02 in 10.0 mi SSE 4.6 mph - N/A   Clear
6:35 PM 79.2 °F - 64.4 °F 60% 30.03 in 10.0 mi Calm Calm - N/A   Mostly Cloudy
7:15 PM 75.2 °F - 65.8 °F 73% 30.04 in 10.0 mi Calm Calm - N/A   Mostly Cloudy
7:35 PM 73.6 °F - 66.2 °F 78% 30.04 in 10.0 mi Calm Calm - N/A   Overcast
7:55 PM 72.5 °F - 65.5 °F 79% 30.05 in 10.0 mi Calm Calm - N/A   Mostly Cloudy
8:15 PM 72.5 °F - 65.5 °F 79% 30.05 in 10.0 mi Calm Calm - N/A   Scattered Clouds
8:35 PM 72.0 °F - 65.7 °F 80% 30.06 in 10.0 mi Calm Calm - N/A   Mostly Cloudy
9:35 PM 68.4 °F - 62.1 °F 80% 30.12 in 10.0 mi NNW 11.5 mph 23.0 mph N/A   Overcast
9:55 PM 66.4 °F - 60.8 °F 82% 30.13 in 10.0 mi North 15.0 mph 23.0 mph N/A   Overcast
10:15 PM 65.7 °F - 60.3 °F 83% 30.14 in 10.0 mi North 13.8 mph 17.3 mph N/A   Overcast
10:35 PM 65.7 °F - 59.5 °F 81% 30.13 in 10.0 mi North 12.7 mph 20.7 mph N/A   Mostly Cloudy
10:55 PM 65.5 °F - 59.0 °F 80% 30.14 in 10.0 mi North 12.7 mph 19.6 mph N/A   Overcast
11:15 PM 65.5 °F - 59.0 °F 80% 30.13 in 10.0 mi North 10.4 mph 18.4 mph N/A   Overcast
11:35 PM 65.3 °F - 58.5 °F 78% 30.14 in 10.0 mi North 9.2 mph - N/A   Overcast
11:55 PM 65.3 °F - 58.5 °F 78% 30.13 in 10.0 mi North 10.4 mph 16.1 mph N/A   Overcast